Location: NJAA Observatory
(40.6819°N, 74.8979°W)
Time: 02:15:30
(UTC-04:00)

Cosmos 2237 Rocket - Visible Passes

Search period start: 01 November 2014 00:00
Search period end: 10 November 2014 23:00
Orbit: 836 x 849 km, 71.0° (Epoch: 31 October)

Date Brightness Start Highest point End Pass type
(mag) Time Alt. Az. Time Alt. Az. Time Alt. Az.
01 Nov 4.9 19:52:42 10° WNW 19:54:54 12° NW 19:57:05 10° NNW visible
02 Nov 4.8 18:37:40 10° WNW 18:40:06 13° NW 18:42:31 10° NNW visible
03 Nov 4.8 18:22:40 10° WNW 18:25:18 13° NW 18:27:56 10° NNW visible
04 Nov 4.7 18:07:41 10° WNW 18:10:30 14° NW 18:13:19 10° NNW visible
05 Nov 4.7 17:52:42 10° W 17:55:42 14° NW 17:58:42 10° NNW visible
06 Nov 4.7 17:37:45 10° W 17:40:54 15° NW 17:44:04 10° NNW visible
07 Nov 4.6 17:22:48 10° W 17:26:07 16° NW 17:29:26 10° NNW visible
